| time (UTC) | temp F | wind direction | speed knots | gust knots | rain 1hr in | rain 24hr in | rain mn in | humidity % | barometer mb |
| 20260507135143 | 0 | 270 | 1.7 | 2.6 | 0.00 | 0.50 | 0.00 | ||
| 20260507134045 | 48 | 280 | 3.5 | 5.2 | 0.00 | 0.51 | 0.00 | 67 | |
| 20260507133045 | 48 | 251 | 3.5 | 5.2 | 0.00 | 0.51 | 0.00 | 71 | |
| 20260507132106 | 47 | 270 | 3.5 | 4.3 | 0.00 | 0.52 | 0.00 | 76 | |
| 20260507131027 | 47 | 184 | 2.6 | 4.3 | 0.00 | 0.52 | 0.00 | 79 | |
| 20260507130108 | 46 | 203 | 1.7 | 3.5 | 0.00 | 0.54 | 0.00 | 80 | |
| 20260507125027 | 46 | 253 | 2.6 | 4.3 | 0.00 | 0.55 | 0.00 | 81 | |
| 20260507124026 | 46 | 281 | 3.5 | 4.3 | 0.00 | 0.56 | 0.00 | 82 | |
| 20260507123027 | 46 | 241 | 2.6 | 4.3 | 0.00 | 0.56 | 0.00 | 85 | |
| 20260507122046 | 46 | 283 | 2.6 | 3.5 | 0.00 | 0.56 | 0.00 | 88 | |
| 20260507121047 | 46 | 275 | 2.6 | 2.6 | 0.00 | 0.56 | 0.00 | 90 | |
| 20260507120046 | 46 | 287 | 0.9 | 1.7 | 0.00 | 0.56 | 0.00 | 96 | |
| 20260507115026 | 45 | 158 | 0.0 | 1.7 | 0.00 | 0.57 | 0.00 | 98 | |
| 20260507114027 | 44 | 0.0 | 0.0 | 0.00 | 0.57 | 0.00 | 98 | ||
| 20260507113026 | 44 | 293 | 0.9 | 1.7 | 0.00 | 0.57 | 0.00 | 99 | |
| 20260507100526 | 41 | 0.0 | 0.0 | 0.00 | 0.57 | 0.00 | 99 | ||
| 20260507095606 | 42 | 0.0 | 0.0 | 0.00 | 0.57 | 0.00 | 99 | ||
| 20260507094526 | 42 | 0.0 | 0.0 | 0.00 | 0.57 | 0.00 | 99 | ||
| 20260507093622 | 42 | 0.0 | 0.0 | 0.00 | 0.57 | 0.00 | 99 | ||
| 20260507092526 | 42 | 0.0 | 0.0 | 0.00 | 0.57 | 0.00 | 99 | ||
| 20260507091703 | 42 | 0.0 | 0.0 | 0.00 | 0.57 | 0.00 | 99 | ||
| 20260507090546 | 42 | 0.0 | 0.0 | 0.00 | 0.57 | 0.00 | 99 | ||
| 20260507085949 | 42 | 0.0 | 0.0 | 0.00 | 0.57 | 0.00 | 99 | ||
| 20260507084546 | 42 | 0.0 | 0.0 | 0.00 | 0.57 | 0.00 | 99 | ||
| 20260507083526 | 42 | 0.0 | 0.0 | 0.00 | 0.57 | 0.00 | 99 | ||
| 20260507082606 | 42 | 0.0 | 0.0 | 0.00 | 0.57 | 0.00 | 99 | ||
| 20260507081526 | 42 | 0.0 | 0.0 | 0.00 | 0.57 | 0.00 | 99 | ||
| 20260507080526 | 42 | 0.0 | 0.0 | 0.00 | 0.57 | 0.00 | 99 | ||
| 20260507075526 | 43 | 0.0 | 0.0 | 0.00 | 0.57 | 0.00 | 99 | ||
| 20260507074526 | 43 | 0.0 | 0.0 | 0.00 | 0.57 | 0.00 | 99 | ||
| 20260507073547 | 43 | 0.0 | 0.0 | 0.00 | 0.57 | 0.00 | 99 | ||
| 20260507072526 | 43 | 0.0 | 0.0 | 0.00 | 0.57 | 0.00 | 99 | ||
| 20260507071526 | 43 | 0.0 | 0.0 | 0.00 | 0.57 | 0.00 | 99 | ||
| 20260507070526 | 43 | 0.0 | 0.0 | 0.00 | 0.57 | 0.00 | 99 | ||
| 20260507065545 | 43 | 0.0 | 0.0 | 0.00 | 0.57 | 0.00 | 99 | ||
| 20260507064622 | 43 | 0.0 | 0.0 | 0.00 | 0.57 | 0.00 | 99 | ||
| 20260507063641 | 0 | 0.0 | 0.0 | 0.00 | 0.57 | 0.00 | |||
| 20260507062545 | 43 | 0.0 | 0.0 | 0.00 | 0.57 | 0.00 | 99 | ||
| 20260507061526 | 43 | 0.0 | 0.0 | 0.00 | 0.57 | 0.00 | 99 | ||
| 20260507060546 | 43 | 0.0 | 0.0 | 0.00 | 0.57 | 0.00 | 99 | ||
| 20260507055526 | 43 | 0.0 | 0.0 | 0.00 | 0.58 | 0.00 | 99 | ||
| 20260507054526 | 43 | 0.0 | 0.0 | 0.00 | 0.58 | 0.00 | 99 | ||
| 20260507053622 | 43 | 0.0 | 0.0 | 0.00 | 0.60 | 0.00 | 99 | ||
| 20260507052527 | 43 | 0.0 | 0.0 | 0.00 | 0.61 | 0.00 | 99 | ||
| 20260507051526 | 43 | 0.0 | 0.0 | 0.00 | 0.64 | 0.00 | 99 | ||
| 20260507050622 | 43 | 0.0 | 0.0 | 0.00 | 0.68 | 0.00 | 99 | ||
| 20260507044526 | 0 | 0.0 | 0.0 | 0.00 | 0.69 | 0.00 | |||
| 20260507043526 | 43 | 0.0 | 0.0 | 0.00 | 0.70 | 0.00 | 99 | ||
| 20260507043104 | 44 | 0.0 | 0.0 | 0.00 | 0.71 | 0.00 | 99 | ||
| 20260507023816 | 45 | 0.0 | 0.0 | 0.03 | 0.72 | 0.72 | 99 | ||
| 20260507010623 | 0 | 0.0 | 0.0 | 0.02 | 0.69 | 0.69 | |||
| 20260507003045 | 0 | 0.0 | 0.0 | 0.03 | 0.69 | 0.69 | |||
| 20260506234526 | 46 | 0.0 | 0.0 | 0.02 | 0.67 | 0.67 | 97 | ||
| 20260506233526 | 46 | 23 | 0.9 | 1.7 | 0.02 | 0.67 | 0.67 | 97 | |
| 20260506232526 | 46 | 0.0 | 0.0 | 0.01 | 0.66 | 0.66 | 97 | ||
| 20260506231526 | 46 | 23 | 1.7 | 1.7 | 0.01 | 0.66 | 0.66 | 96 | |
| 20260506230526 | 46 | 23 | 1.7 | 1.7 | 0.00 | 0.65 | 0.65 | 96 | |
| 20260506225526 | 47 | 17 | 1.7 | 1.7 | 0.00 | 0.65 | 0.65 | 96 | |
| 20260506224545 | 47 | 25 | 0.9 | 1.7 | 0.00 | 0.65 | 0.65 | 96 | |
| 20260506223526 | 47 | 36 | 0.9 | 1.7 | 0.00 | 0.65 | 0.65 | 96 | |
| 20260506222526 | 48 | 18 | 1.7 | 2.6 | 0.00 | 0.65 | 0.65 | 96 | |
| 20260506221547 | 48 | 21 | 0.9 | 2.6 | 0.00 | 0.65 | 0.65 | 97 | |
| 20260506220546 | 48 | 0 | 0.9 | 1.7 | 0.00 | 0.65 | 0.65 | 97 | |
| 20260506215526 | 48 | 346 | 0.9 | 1.7 | 0.01 | 0.65 | 0.65 | 96 | |
| 20260506214526 | 48 | 327 | 0.9 | 1.7 | 0.01 | 0.65 | 0.65 | 96 | |
| 20260506213546 | 0 | 0.0 | 0.0 | 0.01 | 0.65 | 0.65 | |||
| 20260506212948 | 48 | 270 | 1.7 | 1.7 | 0.01 | 0.65 | 0.65 | 96 | |
| 20260506210623 | 48 | 0.9 | 1.7 | 0.05 | 0.65 | 0.65 | 97 | ||
| 20260506205237 | 48 | 0.0 | 0.0 | 0.04 | 0.65 | 0.64 | 97 | ||
| 20260506194641 | 0 | 0 | 2.6 | 2.6 | 0.03 | 0.63 | 0.59 | ||
| 20260506192352 | 50 | 1.7 | 1.7 | 0.01 | 0.61 | 0.57 | 94 | ||
| 20260506190525 | 51 | 17 | 1.7 | 2.6 | 0.02 | 0.61 | 0.57 | 94 | |
| 20260506185525 | 51 | 12 | 2.6 | 3.5 | 0.06 | 0.61 | 0.57 | 94 | |
| 20260506184526 | 51 | 3 | 1.7 | 3.5 | 0.05 | 0.60 | 0.56 | 95 | |
| 20260506183525 | 52 | 324 | 2.6 | 4.3 | 0.15 | 0.60 | 0.56 | 95 | |
| 20260506182526 | 52 | 2.6 | 2.6 | 0.15 | 0.60 | 0.56 | 96 | ||
| 20260506181603 | 52 | 338 | 2.6 | 3.5 | 0.15 | 0.60 | 0.56 | 95 | |
| 20260506180218 | 53 | 2.6 | 2.6 | 0.10 | 0.55 | 0.51 | 96 | ||
| 20260506162525 | 56 | 0.0 | 0.0 | 0.07 | 0.43 | 0.39 | 96 | ||
| 20260506161546 | 56 | 0.0 | 0.0 | 0.06 | 0.41 | 0.37 | 96 | ||
| 20260506160603 | 56 | 0.0 | 0.0 | 0.05 | 0.39 | 0.35 | 96 | ||
| 20260506155141 | 56 | 0.0 | 0.0 | 0.07 | 0.39 | 0.35 | 95 | ||
| 20260506154026 | 55 | 0.0 | 0.0 | 0.07 | 0.38 | 0.34 | 95 | ||
| 20260506153140 | 55 | 0.0 | 0.0 | 0.06 | 0.36 | 0.32 | 95 | ||
| 20260506152122 | 55 | 0.0 | 1.7 | 0.06 | 0.36 | 0.32 | 95 | ||
| 20260506151104 | 55 | 0.0 | 0.0 | 0.06 | 0.34 | 0.30 | 95 | ||
| 20260506150025 | 55 | 0.0 | 0.0 | 0.06 | 0.33 | 0.29 | 94 | ||
| 20260506145026 | 55 | 0.0 | 0.0 | 0.06 | 0.32 | 0.28 | 94 | ||
| 20260506144025 | 55 | 0.0 | 0.0 | 0.06 | 0.31 | 0.27 | 95 | ||
| 20260506143025 | 55 | 0.0 | 0.0 | 0.05 | 0.30 | 0.26 | 95 | ||
| 20260506142026 | 55 | 0.0 | 0.0 | 0.06 | 0.30 | 0.26 | 95 | ||
| 20260506141025 | 55 | 0.0 | 0.0 | 0.04 | 0.29 | 0.24 | 95 | ||
| 20260506140046 | 55 | 0.0 | 0.0 | 0.05 | 0.28 | 0.23 | 97 |